Temp
25 24 24 23 23 22 21 21 21 21 20 20 20 20 20 20 19 19 19 19 19 19 19 19 19 19 19 20 21 21 20 20 18 20 21 24 25 24 21 22 25 26 27
25 24 23 22 22 21 21 20 20 20 20 20 20 20 20 20 19 19 19 19 19 18 18 18 18 18 18 18 19 20 20 21 20 20 20 21 22 21 24 19 22 21 26
24 23 22 22 21 21 20 20 20 20 20 20 20 20 19 19 19 19 19 18 17 17 17 17 16 16 15 16 17 19 20 20 20 21 21 21 21 24 22 20 23 21 20
24 23 23 22 21 21 21 21 20 21 21 21 20 19 19 19 19 19 18 17 16 15 15 15 15 14 14 14 16 18 19 20 20 20 21 21 21 21 20 20 19 21 20
24 23 23 22 21 21 21 20 20 20 21 20 19 19 19 19 20 19 17 15 14 14 13 13 13 12 13 14 15 17 18 19 19 20 20 21 21 21 21 21 21 21 22
23 23 23 22 21 21 21 20 20 20 20 19 19 19 19 19 18 17 16 14 13 13 12 12 12 12 13 13 14 15 16 18 18 19 20 21 22 21 22 23 24 24 21
23 23 22 21 21 21 21 20 20 20 19 19 19 19 19 18 17 16 14 12 12 12 12 11 12 13 13 13 15 16 17 17 18 19 20 21 22 23 24 24 24 24 23
23 22 22 21 21 21 20 20 20 19 19 18 19 19 18 17 16 15 14 12 13 11 11 11 12 12 12 14 16 17 18 18 19 19 19 21 22 23 23 23 23 23 22
23 22 22 22 21 21 20 20 19 19 18 19 19 19 17 16 17 15 13 12 12 12 13 13 13 12 14 16 17 17 18 18 19 20 20 20 22 22 22 22 21 21 21
23 23 22 21 21 20 20 20 19 19 19 19 19 19 18 17 17 15 13 13 13 12 13 14 16 16 17 17 17 19 19 19 20 20 20 21 21 21 21 21 20 20 20
23 23 22 21 20 20 20 20 19 19 19 19 20 20 18 18 15 16 14 14 13 13 13 12 13 17 17 17 17 18 18 20 21 21 20 20 20 20 20 20 20 19 20
23 22 21 21 21 21 21 20 20 19 19 20 20 19 19 18 15 16 16 15 14 13 13 12 13 13 14 15 16 16 17 17 17 18 19 20 20 20 20 20 19 19 19
22 22 21 21 21 21 20 20 20 20 20 21 20 19 18 17 15 15 16 16 14 13 13 13 13 13 13 13 14 15 15 15 16 15 15 15 16 16 18 18 19 19 19
21 21 20 20 20 20 20 21 21 22 21 20 18 18 17 16 15 15 15 15 15 14 14 14 13 13 13 13 13 13 13 13 13 13 13 14 14 14 14 15 16 17 16
18 18 18 18 21 21 21 21 21 20 19 18 16 16 14 14 14 14 14 15 15 15 13 14 15 15 14 14 13 13 13 13 13 12 13 13 13 13 13 14 13 13 13
15 17 17 19 22 23 20 18 19 18 18 17 17 16 15 15 15 15 15 15 17 16 13 13 14 14 16 16 16 15 14 13 13 13 13 13 13 14 13 14 14 13 12
16 19 19 21 23 23 20 18 15 15 16 17 16 15 15 15 15 15 15 14 14 14 14 14 14 14 15 15 16 16 15 15 15 14 13 14 14 14 14 14 14 13 13
17 18 20 20 22 22 23 21 19 16 15 15 16 15 15 15 15 15 15 14 14 14 14 13 14 14 14 14 15 15 16 16 15 15 14 14 14 14 15 15 14 14 14
18 20 20 21 22 22 21 22 19 17 17 17 17 16 16 15 15 15 14 14 14 14 13 14 13 13 13 13 14 15 14 15 15 15 15 14 14 14 14 15 15 15 15
16 19 17 17 17 16 18 17 17 17 17 19 17 17 17 17 17 16 15 14 14 13 13 14 14 13 13 12 11 12 12 12 12 13 14 15 15 15 15 15 15 15 15
15 17 20 17 17 16 15 15 16 15 17 18 17 17 17 17 17 16 15 15 14 14 14 13 13 13 13 11 10 10 10 10 10 10 11 12 14 14 15 15 16 16 16
14 15 17 15 16 15 15 15 15 17 19 18 17 17 18 17 16 16 15 15 14 14 14 13 13 12 10 9 9 8 7 6 7 7 8 10 11 12 13 14 15 15 14
17 16 16 14 15 15 15 15 15 17 19 19 19 18 18 17 16 15 15 14 14 14 14 13 12 11 9 8 7 6 5 5 5 5 6 7 9 11 12 13 13 13 13
16 16 16 15 14 15 16 17 17 19 19 19 19 18 17 16 16 15 14 13 14 13 13 12 11 10 9 7 5 5 4 5 6 6 6 6 8 10 11 11 11 11 11
14 14 15 15 16 17 16 16 19 19 19 18 18 17 17 16 15 14 13 13 13 13 13 12 11 9 7 6 5 5 5 6 6 6 7 7 8 9 10 9 10 10 10
15 16 16 18 18 19 19 18 18 17 17 17 16 16 15 15 14 13 12 12 12 12 12 11 10 10 8 5 5 5 5 5 6 5 6 7 8 8 6 6 7 7 8
Height
804 806 806 808 810 810 811 810 810 808 809 808 807 805 803 801 800 797 794 791 788 784 781 777 773 772 767 764 762 759 759 758 757 750 747 735 732 737 745 752 749 754 752
802 803 805 804 806 808 808 807 806 806 806 804 802 801 799 797 795 793 790 787 782 777 773 769 763 760 757 754 751 748 748 749 748 744 742 738 735 740 746 753 756 750 747
800 803 803 802 804 805 805 804 803 802 802 801 800 797 796 794 792 789 785 781 777 772 765 759 752 750 743 740 738 736 735 736 737 736 735 735 735 739 740 748 741 735 728
798 801 801 800 801 802 802 801 800 800 799 798 796 794 792 789 786 783 779 774 768 760 753 745 738 734 729 727 724 722 723 725 726 728 726 727 727 726 731 737 737 732 731
795 799 799 799 799 799 799 798 798 797 795 794 793 791 788 785 782 778 773 767 758 746 737 727 720 715 713 712 712 709 712 713 715 715 717 718 718 719 720 722 728 727 730
791 796 797 797 796 796 796 796 795 794 793 792 790 787 785 781 778 774 768 758 745 732 718 707 702 699 697 696 694 697 700 702 704 705 706 707 707 709 711 713 714 720 724
790 793 795 795 794 793 793 793 792 791 790 789 787 783 781 777 773 768 759 745 730 714 703 694 688 686 684 682 680 682 683 688 693 697 698 698 701 703 705 708 708 712 716
788 791 791 791 790 790 790 790 789 788 786 786 783 780 777 773 769 761 750 735 720 703 691 683 678 673 672 671 672 671 672 674 679 685 689 692 694 698 700 703 706 708 710
784 787 787 787 787 787 788 787 786 784 783 782 780 778 774 769 764 756 746 731 712 695 682 674 669 665 663 664 664 664 664 665 668 673 680 685 689 693 698 701 702 705 705
780 782 782 783 785 786 785 784 783 782 780 779 777 774 771 767 761 754 745 731 713 696 681 669 661 658 658 659 659 657 658 658 662 668 674 680 684 688 692 695 698 702 704
775 777 778 780 781 782 781 779 778 778 778 776 774 772 768 766 759 752 744 733 719 703 689 676 664 658 656 654 656 654 657 657 661 665 670 675 679 683 687 689 692 696 698
770 773 775 777 777 776 776 775 773 774 776 774 772 768 766 764 759 752 744 735 725 714 697 686 679 666 660 658 658 660 660 660 662 666 670 674 679 682 685 688 690 691 693
768 772 775 775 773 773 771 770 770 769 772 769 768 766 766 763 758 753 745 738 730 718 710 700 689 675 669 668 666 666 665 667 669 673 677 680 681 683 683 685 687 688 690
767 770 778 782 773 770 768 766 766 763 768 768 766 766 764 762 758 754 747 742 734 724 715 711 704 695 687 683 679 678 679 679 680 681 682 684 684 684 685 686 686 686 688
765 761 765 771 767 764 764 761 761 761 764 768 766 768 765 762 759 757 752 744 739 732 722 716 709 706 700 697 694 693 692 692 690 693 690 691 691 691 691 692 692 692 692
759 762 765 765 756 751 753 757 758 764 761 765 766 767 764 762 760 756 753 747 740 735 728 725 718 714 710 707 706 706 704 703 702 703 699 700 701 699 699 697 698 700 698
755 754 748 756 754 752 749 752 758 762 763 762 767 768 764 761 759 757 753 750 744 739 736 734 731 726 722 719 715 713 712 711 710 708 708 709 706 706 704 702 702 707 706
748 748 743 746 749 748 747 750 753 758 758 761 764 768 764 762 760 757 755 750 747 745 744 742 738 735 732 729 724 722 720 718 717 716 715 713 712 711 710 710 710 709 708
747 748 746 748 749 748 748 747 749 753 753 758 762 766 763 762 761 758 758 756 754 752 750 748 746 744 740 738 734 730 729 727 726 724 722 720 719 718 716 715 714 712 710
746 747 745 746 746 746 755 751 754 755 758 759 762 764 762 760 761 761 760 759 759 758 756 754 752 749 746 744 741 738 737 734 732 730 728 726 724 723 721 720 718 716 714
742 745 738 743 755 759 754 756 752 754 762 761 762 761 762 761 761 762 762 761 761 761 759 757 756 754 750 748 747 746 745 744 741 737 734 731 729 728 727 725 722 719 717
747 740 737 746 750 753 751 749 753 759 756 758 761 762 762 762 763 764 764 764 764 763 762 761 759 758 756 754 753 751 749 747 745 743 740 737 735 733 731 729 726 723 722
746 745 747 747 747 750 748 747 756 758 756 756 759 760 762 764 764 766 766 767 766 765 764 762 762 761 760 758 756 755 753 751 750 748 743 741 739 737 735 732 730 727 726
746 746 745 745 747 749 749 749 751 754 755 757 758 761 763 765 766 767 769 769 768 767 767 765 763 763 762 761 760 758 756 754 751 749 746 744 742 740 737 736 734 732 729
747 747 746 746 746 744 746 749 750 752 755 758 761 763 765 767 768 769 770 771 770 769 768 767 767 765 763 763 762 760 757 754 751 749 746 745 744 742 739 737 735 732 730
749 749 747 745 744 745 747 749 753 756 759 762 764 766 767 769 770 772 774 774 773 772 771 770 770 769 767 764 762 760 757 753 751 749 747 746 745 742 740 739 737 734 732
Wind_Speed
15 15 12 8 4 4 6 7 9 12 15 16 18 21 22 21 23 23 24 24 27 32 31 31 32 37 38 36 34 32 30 26 13 20 37 40 33 44 48 23 17 23 32
14 12 9 6 3 4 6 7 10 13 16 18 20 21 24 23 22 22 23 29 33 34 36 34 38 38 38 39 38 35 32 33 29 21 25 34 36 48 46 38 31 19 31
12 10 9 6 5 6 7 8 12 14 17 19 21 21 21 24 22 22 29 28 31 36 40 42 44 41 45 42 41 37 34 32 34 31 26 33 41 44 35 22 32 50 41
13 11 9 7 6 5 6 9 12 14 16 20 19 20 20 22 22 24 30 35 38 41 43 44 46 46 44 41 38 37 35 33 31 31 29 28 26 34 30 24 20 35 33
13 11 10 7 6 5 6 9 12 16 16 16 18 19 21 21 21 29 37 38 40 44 45 46 43 43 44 43 40 33 31 31 30 28 26 25 22 22 18 20 22 28 35
12 13 10 7 5 4 7 10 13 15 14 16 18 19 21 20 25 33 41 43 47 47 45 45 40 39 41 44 46 46 42 33 27 27 25 19 24 22 23 23 19 16 4
14 12 8 7 4 4 7 10 12 11 11 15 17 21 19 24 28 37 47 48 51 46 40 41 37 34 34 37 36 38 40 43 42 30 29 28 24 27 27 23 22 14 14
13 12 9 7 6 5 6 8 10 8 10 15 18 17 17 21 29 39 53 45 48 42 37 34 34 36 34 31 28 26 28 33 39 42 36 29 28 21 13 15 13 14 18
16 13 11 9 6 6 6 5 7 9 12 15 16 19 15 21 35 42 54 45 46 46 37 31 30 30 27 26 27 25 23 26 29 35 39 28 26 20 21 16 11 10 12
16 14 11 9 8 7 6 5 7 9 13 14 18 15 10 26 33 42 49 45 46 41 40 32 28 19 20 22 19 19 18 21 20 25 27 33 31 25 24 25 20 16 11
17 12 10 11 11 10 8 5 9 11 16 17 16 10 14 27 29 41 45 51 44 40 35 29 23 10 8 3 6 4 3 8 11 13 11 15 16 18 21 21 23 22 19
14 12 12 12 12 10 6 9 14 16 19 16 6 14 14 23 26 38 45 46 47 37 37 38 30 37 34 26 18 12 9 11 13 13 9 3 7 9 12 14 14 19 21
12 10 10 12 10 10 11 16 18 17 9 3 9 11 11 17 22 31 39 45 45 35 34 35 35 40 38 41 37 28 26 24 20 20 19 19 14 11 6 4 5 7 10
9 4 7 17 12 15 16 18 17 6 3 5 8 8 10 14 23 28 31 38 38 40 32 25 27 34 41 37 35 37 36 34 27 23 23 24 28 27 26 14 8 6 13
13 11 6 25 24 22 23 15 6 6 5 4 4 4 7 11 20 20 21 29 32 34 34 32 26 19 20 23 28 33 36 31 30 27 30 29 26 25 28 27 25 25 23
9 18 24 29 22 20 16 13 11 7 9 9 11 9 10 13 15 17 19 27 26 32 34 30 30 29 21 20 22 21 21 25 30 25 27 26 22 26 19 26 28 24 20
20 25 19 17 15 16 18 18 16 12 11 12 8 7 10 13 18 20 20 21 29 30 28 26 28 29 28 27 25 25 22 22 21 16 15 20 25 21 20 22 19 12 14
21 24 13 14 17 15 11 15 14 15 17 11 8 4 4 9 15 22 25 26 25 25 23 24 24 26 27 26 28 27 25 26 25 25 24 26 26 18 16 13 9 9 10
15 14 14 17 11 8 4 8 17 17 12 12 10 6 5 3 7 18 19 18 19 20 21 19 23 23 25 24 22 23 25 24 24 22 21 22 22 22 22 18 17 13 10
23 18 9 21 14 19 5 11 9 8 6 13 11 7 5 5 6 13 15 17 15 16 19 17 18 19 23 26 27 28 26 27 27 26 23 20 18 19 17 19 18 17 18
9 12 9 2 8 1 14 13 4 13 8 11 7 8 4 5 13 13 14 14 14 14 13 17 17 21 18 21 24 24 23 24 25 26 27 26 23 20 20 18 18 16 18
20 13 17 10 4 13 17 21 22 10 13 10 12 7 7 10 12 12 13 13 12 13 13 15 17 19 22 21 20 22 21 22 23 23 23 24 23 21 21 19 17 17 17
14 14 14 10 13 12 15 19 6 3 4 6 7 8 10 9 13 12 12 12 12 13 13 15 16 17 20 19 20 23 21 21 17 19 18 20 21 21 19 18 19 18 19
7 8 9 10 10 13 16 13 9 6 7 7 9 10 10 8 11 12 12 11 11 12 13 16 16 11 11 14 18 20 23 22 18 19 16 13 16 18 17 17 18 19 18
9 12 13 15 16 12 9 15 4 10 10 8 9 8 8 9 10 12 12 10 12 12 13 15 16 10 12 14 21 24 27 24 17 15 16 12 16 16 16 16 17 16 16
10 9 9 8 6 11 10 11 9 8 8 7 8 7 10 10 12 11 10 10 11 11 12 14 14 14 13 14 23 27 30 26 19 12 12 16 15 15 17 16 18 18 18
Wind_Direction
181 186 177 173 196 240 264 286 304 311 308 304 302 298 296 299 304 303 305 306 305 302 295 292 292 293 288 281 276 266 253 238 228 246 241 267 285 292 291 297 267 243 225
198 176 182 177 199 249 274 297 303 307 305 302 302 305 304 306 308 307 306 306 303 299 295 290 289 287 283 285 275 265 256 248 230 238 237 247 241 255 256 275 267 292 220
182 192 193 190 219 257 286 301 313 307 298 298 303 307 310 311 311 309 312 315 313 303 293 286 283 283 282 275 269 264 256 249 243 240 242 233 237 242 242 253 265 266 291
190 203 208 206 225 261 284 303 305 308 306 310 315 317 317 313 315 310 324 322 310 299 290 282 279 277 271 271 267 260 257 251 242 235 238 234 230 248 246 241 231 235 256
188 211 215 217 234 261 286 297 310 309 313 324 322 321 319 316 318 323 319 316 304 299 293 279 272 266 266 265 267 262 256 251 241 235 233 226 224 235 233 237 218 230 242
188 215 216 218 237 270 291 304 306 305 326 329 323 322 320 322 321 323 326 320 312 298 293 285 274 267 264 266 266 256 253 245 235 228 232 224 218 224 233 234 223 214 213
202 214 211 219 239 266 290 297 298 319 331 330 325 330 331 325 323 333 330 323 314 300 288 284 275 268 264 266 258 257 252 244 241 237 234 227 224 225 235 237 230 228 236
202 213 209 219 233 262 284 299 311 322 329 323 325 331 331 329 339 344 344 330 331 316 299 283 272 270 267 261 262 255 242 235 237 234 236 239 229 219 217 225 237 255 265
202 210 213 214 225 243 262 306 316 324 321 322 322 332 326 341 346 352 351 340 337 333 320 309 297 277 274 266 263 254 242 231 228 232 225 232 235 236 232 234 252 241 258
209 212 211 208 223 235 263 293 317 314 304 305 318 319 330 357 355 354 2 354 345 337 344 329 308 295 281 275 289 263 241 230 215 213 220 229 240 245 244 247 258 248 247
208 204 202 212 221 232 250 265 292 290 295 300 309 337 1 5 355 2 4 3 354 343 352 357 15 354 334 333 307 351 310 228 202 200 198 222 234 243 242 246 244 232 244
198 202 206 215 228 243 257 277 278 279 282 295 321 16 360 347 351 4 2 8 5 357 358 10 17 59 68 69 65 58 48 38 45 47 24 313 251 252 256 254 258 248 248
189 208 223 232 233 249 252 260 263 273 263 306 8 5 355 343 355 9 11 10 7 6 5 15 17 44 53 56 65 67 65 62 65 63 54 45 34 28 31 3 326 279 269
191 182 309 298 260 251 248 256 265 129 37 15 27 343 339 340 355 0 12 14 14 12 10 17 27 48 56 55 55 57 58 60 61 64 63 58 59 55 48 40 27 349 59
110 102 212 254 245 241 245 251 132 130 116 99 69 13 13 1 357 357 10 24 18 20 19 19 21 38 48 58 62 63 60 57 60 56 62 56 54 57 61 57 58 66 62
213 260 242 258 259 229 198 126 135 136 120 103 92 98 68 44 23 10 18 31 23 24 26 15 17 20 34 38 51 63 67 70 74 71 65 64 61 62 57 64 65 60 64
232 242 229 258 273 269 155 149 141 138 128 122 116 91 73 56 40 28 25 34 38 36 28 20 20 19 22 23 48 57 58 56 54 50 68 77 78 72 64 63 62 66 70
221 225 229 239 256 278 217 162 155 173 163 168 190 203 113 79 53 40 34 32 26 31 36 27 21 21 23 23 29 35 38 40 41 37 37 39 43 38 44 41 49 64 54
228 235 232 248 273 278 319 207 159 152 102 218 175 215 230 188 76 53 52 48 34 24 17 36 36 32 24 17 20 35 41 38 38 36 34 35 35 36 32 34 28 19 14
332 272 59 52 47 348 21 42 82 43 134 97 83 51 42 42 66 49 57 51 45 37 26 32 32 35 36 35 32 32 32 29 23 20 18 23 28 30 25 23 25 19 19
2 246 260 35 72 246 71 44 130 198 212 122 131 82 44 31 51 45 51 45 48 37 34 32 40 28 30 51 44 35 31 27 23 14 8 8 11 22 9 12 15 16 18
263 164 182 207 107 80 78 72 6 208 131 148 153 113 69 59 63 40 46 43 38 40 32 43 42 37 60 53 39 35 28 21 14 10 5 0 1 12 3 359 4 12 20
154 153 164 142 109 94 89 103 148 276 114 127 120 69 62 53 70 45 43 36 27 39 27 47 38 51 54 43 28 32 28 21 10 2 10 357 353 0 354 357 0 14 5
126 143 153 140 126 130 134 132 198 136 65 57 72 64 65 50 65 66 52 31 23 38 37 50 44 52 41 34 30 20 21 11 6 3 4 0 349 351 353 355 2 357 346
155 157 147 149 145 141 210 230 166 60 86 64 68 61 64 63 56 53 44 27 30 38 34 51 41 46 44 32 15 7 2 1 4 2 9 13 345 348 353 358 349 340 335
133 152 134 114 88 72 73 80 79 78 76 76 71 66 67 57 62 52 40 33 26 34 34 39 33 27 34 19 5 358 357 356 0 6 9 3 352 357 9 355 350 344 343